STARLINK-34266, 65093

Orbit data source: Space-Track

STARLINK-34266, 65093 is a payload satellite owned by SpaceX/Seattle (US) in LEO that was launched on Mon, 04 Aug 2025 UTC via an FALCON 9 launch vehicle from the Air Force Eastern Test Range (AFETR). Payload-class satellites include a variety of spacecraft equipped with specific instruments for various scientific and technological missions. These include communications satellites like Starlink; space stations such as the ISS; scientific satellites like the Hubble; Earth observation satellites from companies like Planet Labs, Umbra, and HawkEye 360; GPS; miniature CubeSats for education and research; and military/defense satellites.

Loading next visibility...
Identifier
65093, 2025-167R
Orbit
LEO
Country
Flag of USUS
Related business
Manufacturer
SpaceX/Seattle
Mission
Operational Commercial Communications
Bus & Motor
STARLINK V2MO, Unknown motor
Mass
575 kg wet, ~530 kg dry
Launch date (UTC)
2025-08-04 (11 months ago)
Launch vehicle
FALCON 9
Launch site
Air Force Eastern Test Range (AFETR)
Object type
Payload
Rocket body
Debris
Shape & HBR
Box + 2 Pan, 17.7 m
Radar Cross Section
36.964 m², Large (>1 m²)

Expand to show TLE details & history
Last TLE update: 2 days ago

TLE from 2 days ago
0 STARLINK-34266
1 65093U 25167R   26172.95126519 -.00054380  00000-0 -98586-3 0  9991
2 65093  53.1591 257.3344 0001322  74.5076 285.6079 15.49037980 49516
Epoch: 2026-06-21T22:49Z
TLE epoch observation values (Epoch: 2026-06-21T22:49:49.312Z)
Latitude
-0.00001°
Longitude
4.73476°
Altitude
420.204 km
Speed
7.66 km/s
True Right ascension
17h 09m 20s
True Declination
0° 00' 00"
Sunlit
Object was in full shadow at epoch
Visualization orbit readout
Latitude
Unknown
Longitude
Unknown
Altitude
Unknown
Speed
Unknown
Apparent Right ascension
Unknown
Apparent Declination
Unknown
Sunlit
N/A
Visualization observer readout
Local Sidereal Time
15:18:41
Azimuth
Unknown
Elevation
Unknown
Doppler factor
Unknown
Orbital elements
Apogee altitude
420.696 km
Perigee altitude
418.899 km
Semi-major axis
6,797.935 km
Eccentricity
0.00013
Inclination
53.1591°
RAAN
257.3344°
Arg. of periapsis
74.5076°
True anomaly
285.59331°
Mean anomaly
285.6079°
Eccentric anomaly
285.6006°
Mean motion
3.87238 °/min
Orbital period
92.97 mins
BSTAR
-0.00098586
Loading maneuver chart data...
Computing Atmospheric mass density...
Loading historical data...
Loading historical data...
Loading historical data...
Loading historical data...
Loading historical data...
Loading historical data...
Loading historical data...

Documentation

Showing up to 5 results
|